User: anonymous   Login
Location: Unspecified
(0.0000°N, 0.0000°E)
Time: 09:44:56
(UTC+01:00)
Language:

Timation 2 Rocket - Orbit

View from above orbital plane
View from above orbital plane
View from above satellite
View from above satellite

Ground track
Ground track

The orbit data is extracted from the following two-line orbital elements,

1 04159U 69082AB  16041.15802095  .00000036  00000-0  90439-4 0  9994
2 04159  69.9622  91.4321 0116268 341.9256  17.7717 13.72334645320439
Epoch (UTC): 10 February 2016 03:47:33
Eccentricity: 0.0116268
inclination: 69.9622°
perigee height: 905 km
apogee height: 1077 km
right ascension of ascending node: 91.4321°
argument of perigee: 341.9256°
revolutions per day: 13.72334645
mean anomaly at epoch: 17.7717°
orbit number at epoch: 32043

The dashed part of the orbit path shows where the satellite is in the earth's shadow,  

DLR